Shoreham, United Kingdom

9:04 PM BST on August 26, 2016 (GMT +0100)
Shoreham

Weather History for EGKA - October, 2013

Change the Weather History Date:

Monday, October 14, 2013

  Actual Average Record
Temperature  
Mean Temperature 48 °F -  
Max Temperature 55 °F 54 °F 64 °F (1998)
Min Temperature 41 °F 46 °F 33 °F (2012)
Degree Days  
Heating Degree Days 17    
Moisture  
Dew Point 45 °F    
Average Humidity 89    
Maximum Humidity 100    
Minimum Humidity 69    
Precipitation  
Precipitation 0.01 in - - ()
Sea Level Pressure  
Sea Level Pressure 29.79 in    
Wind  
Wind Speed 7 mph ()    
Max Wind Speed 16 mph    
Max Gust Speed -    
Visibility 4.9 miles    
Events      
Averages and records for this station are not official NWS values.
T = Trace of Precipitation, MM = Missing Value Source: Averaged Metar Reports

Daily Weather History Graph

Daily Weather History Graph

Search for Another Location

Airport or City:

Trip Planner

Search our weather history database for the weather conditions in past years. The results will help you decide how hot, cold, wet, or windy it might be!

Date:

Astronomy

Oct. 14, 2013 Rise Set
Actual Time 7:22 AM BST 6:10 PM BST
Civil Twilight 6:49 AM BST 6:43 PM BST
Nautical Twilight 6:11 AM BST 7:21 PM BST
Astronomical Twilight 5:33 AM BST 8:00 PM BST
Moon 3:56 PM BST (10/14) 1:53 AM BST (10/14)
Length of Visible Light 11h 54m
Length of Day
10h 48m
Waxing Gibbous, 77% of the Moon is Illuminated
Oct 14
Waxing Gibbous
Oct 19
Full
Oct 27
Last Quarter
Nov 3
New
Nov 10
First Quarter

Hourly Weather History & Observations

Time (BST) Temp. Windchill Dew Point Humidity Pressure Visibility Wind Dir Wind Speed Gust Speed Precip Events Conditions
12:50 AM 47 °F - 46 °F 97% 29.82 in - West 6.9 mph - -  
3:50 AM 46 °F - 45 °F 95% 29.80 in - West 8.1 mph - -  
6:50 AM 42 °F - 41 °F 95% 29.79 in - NW 4.6 mph - -  
7:50 AM 42.8 °F - 41.0 °F 93% 29.77 in 3.1 mi NNW 2.3 mph - N/A   Haze
8:20 AM 42.8 °F 40.1 °F 42.8 °F 100% 29.80 in 2.5 mi West 4.6 mph - N/A   Haze
8:50 AM 44.6 °F 40.7 °F 44.6 °F 100% 29.80 in 2.5 mi West 6.9 mph - N/A   Haze
9:20 AM 46.4 °F 42.9 °F 44.6 °F 93% 29.80 in 2.8 mi West 6.9 mph - N/A   Haze
9:50 AM 47 °F - 46 °F 92% 29.81 in - West 8.1 mph - -  
9:50 AM 46.4 °F 42.9 °F 44.6 °F 93% 29.80 in 5.6 mi West 6.9 mph - N/A   Mostly Cloudy
10:20 AM 48.2 °F - 46.4 °F 93% 29.80 in 5.6 mi West 8.1 mph - N/A   Mostly Cloudy
10:50 AM 48.2 °F - 46.4 °F 93% 29.80 in 6.2 mi West 9.2 mph - N/A   Mostly Cloudy
11:20 AM 50.0 °F - 46.4 °F 87% 29.80 in 6.2 mi West 8.1 mph - N/A   Mostly Cloudy
12:20 PM 53.6 °F - 50.0 °F 88% 29.80 in 6.2 mi WSW 9.2 mph - N/A   Mostly Cloudy
12:50 PM 53 °F - 46 °F 69% 29.79 in - West 10.4 mph - -  
12:50 PM 53.6 °F - 46.4 °F 77% 29.77 in 6.2 mi West 10.4 mph - N/A   Mostly Cloudy
2:20 PM 53.6 °F - 46.4 °F 77% 29.77 in 6.2 mi WSW 16.1 mph - N/A   Mostly Cloudy
2:50 PM 53.6 °F - 46.4 °F 77% 29.77 in 6.2 mi West 12.7 mph - N/A   Mostly Cloudy
6:50 PM 49 °F - 45 °F 80% 29.76 in - WNW 10.4 mph - -  
9:50 PM 49 °F - 47 °F 88% 29.76 in - West 10.4 mph - -